EHI
0 0 0 0 0 0 0 0 0 0 0 0 1 2 3 4 7 8 8 9 14 20 22 24 23 21 19 20 22 21 21 22 22 20 17 16 16 14 13 11 9 7 6 5
0 0 0 0 0 0 0 0 0 0 0 0 1 2 3 4 5 6 8 10 14 19 23 26 26 23 20 21 22 22 24 25 23 20 17 17 16 15 13 12 11 8 7 6
0 0 0 0 0 0 0 0 0 0 0 0 0 1 2 3 3 3 6 10 12 16 21 25 27 24 23 22 21 22 25 26 26 23 21 22 21 18 16 14 13 12 9 8
0 0 0 0 0 0 0 0 0 0 0 0 0 1 1 2 2 3 6 7 8 12 17 21 23 23 22 20 19 20 23 26 27 27 27 27 25 20 18 17 17 17 14 11
0 0 0 0 0 0 0 0 0 0 0 0 0 0 0 0 1 3 5 7 8 10 13 16 17 18 19 18 18 19 22 25 28 29 29 29 27 22 20 21 22 23 20 18
0 0 0 0 0 0 0 0 0 0 0 0 0 0 0 0 1 2 5 8 9 10 11 13 14 16 16 16 19 21 24 26 28 29 29 30 29 25 24 25 26 27 25 22
0 0 0 0 0 0 0 0 0 0 0 0 0 0 0 1 2 4 7 9 11 11 11 12 14 16 17 18 21 23 25 27 28 28 28 29 28 27 26 26 26 26 24 21
0 0 0 0 0 0 0 0 0 0 0 0 0 0 0 1 3 6 8 10 12 12 12 14 16 18 21 23 24 23 23 23 25 27 27 27 27 25 25 25 23 21 19 17
0 0 0 0 0 0 0 0 0 0 0 0 0 0 0 2 4 5 6 9 11 11 11 14 17 19 22 24 23 21 19 19 22 24 25 25 26 24 23 22 19 16 13 12
0 0 0 0 0 0 0 0 0 0 0 0 0 0 1 3 3 2 3 7 10 10 9 11 14 16 18 19 18 17 17 18 21 23 23 22 22 21 19 17 15 13 11 11
0 0 0 0 0 0 0 0 0 0 0 0 0 0 1 3 2 2 3 6 9 9 7 8 10 12 12 12 12 11 13 18 22 24 23 21 18 17 17 15 12 11 12 13
0 0 0 0 0 0 0 0 0 0 0 0 0 0 0 1 2 3 5 7 8 7 6 7 8 8 7 7 7 8 10 15 20 24 24 20 15 14 15 14 12 10 12 13
0 0 0 0 0 0 0 0 0 0 0 0 0 0 0 0 2 5 7 9 8 5 4 6 7 5 4 5 7 9 10 13 17 22 22 19 15 13 14 14 12 11 11 12
0 0 0 0 0 0 0 0 0 0 0 0 0 0 1 1 2 5 9 10 8 5 3 4 6 5 3 4 6 8 9 11 14 18 19 18 15 14 14 14 13 11 11 12
0 0 0 0 0 0 0 0 0 0 0 0 0 0 1 2 2 5 8 8 6 4 3 3 4 3 2 3 5 6 7 9 11 14 16 17 17 16 16 15 14 11 11 12
0 0 0 0 0 0 0 0 0 0 0 0 0 0 1 1 2 5 6 5 4 3 2 3 3 3 3 4 6 7 7 8 10 12 14 17 18 17 16 16 14 12 12 13
0 0 0 0 0 0 0 0 0 0 0 0 0 0 0 1 2 5 5 4 3 3 3 2 2 3 4 4 6 7 7 7 9 11 14 16 18 17 16 15 14 13 13 14
1 0 0 0 0 0 0 0 0 0 0 0 0 0 1 2 3 4 4 4 3 3 2 2 3 4 4 4 4 5 6 6 7 10 13 16 16 14 14 14 13 13 13 13
1 0 0 0 0 0 0 0 0 0 0 0 0 0 1 2 3 2 3 3 3 3 3 4 5 6 5 4 4 5 6 5 5 7 10 13 14 13 13 15 14 13 12 11
1 0 0 0 0 0 0 0 0 0 0 0 0 0 1 2 2 2 2 1 2 4 6 6 6 7 6 4 4 6 7 4 3 5 9 11 13 13 15 17 16 13 11 11
0 0 0 0 0 0 0 0 0 0 1 1 1 1 0 1 3 4 3 2 3 5 6 6 6 7 6 5 5 6 8 6 3 5 9 11 12 13 15 17 16 14 12 12
0 0 0 0 0 0 0 0 0 0 1 2 2 2 1 1 2 4 4 4 5 5 6 6 6 7 8 7 7 7 9 8 6 6 9 11 12 12 13 15 16 14 12 12
0 0 0 0 0 0 0 0 0 0 1 2 3 3 2 1 1 1 2 3 5 5 5 6 7 9 9 8 8 9 10 11 9 8 8 9 11 12 13 15 15 14 12 11
0 0 0 0 0 0 0 0 0 0 0 2 3 3 2 1 1 0 0 1 3 4 5 6 7 8 8 8 9 10 11 11 10 9 9 9 10 11 12 14 14 14 12 11
0 0 0 0 0 0 0 0 0 0 0 1 2 2 1 1 1 2 1 1 2 3 4 5 6 5 5 6 7 8 9 9 9 9 10 9 9 10 11 13 12 11 10 9
0 0 0 0 0 0 0 0 0 0 0 0 1 2 1 1 2 3 2 2 1 2 4 4 4 4 4 4 5 4 6 8 9 10 10 8 8 8 11 12 11 7 6 6
Wind_Speed
8 10 10 8 9 7 6 7 8 5 2 6 7 6 4 4 6 7 7 7 7 6 6 6 6 5 5 5 6 6 6 6 5 4 4 4 4 3 3 3 3 3 3 3
9 11 8 6 6 8 9 10 9 6 4 6 6 7 5 5 6 6 6 7 7 7 6 6 6 5 5 5 5 6 6 6 6 4 3 3 3 3 3 2 3 3 3 4
11 3 4 8 9 10 10 10 8 6 5 7 7 9 8 6 5 4 5 6 7 7 7 7 7 6 5 5 5 4 5 5 5 5 4 3 3 3 4 4 4 4 4 4
8 5 6 9 10 11 10 7 7 8 9 7 7 8 6 6 6 5 4 5 6 7 7 7 6 6 5 5 5 5 5 5 5 5 5 5 4 4 4 3 3 4 4 4
6 6 8 9 7 9 6 3 7 9 10 9 9 9 5 5 5 4 4 4 5 6 6 6 5 5 5 4 4 4 5 4 4 4 5 5 5 4 3 3 4 4 4 4
6 4 6 6 4 5 5 5 7 9 10 12 9 10 5 3 3 3 3 3 4 5 5 5 4 4 4 4 4 5 5 5 4 4 4 4 4 4 4 4 4 4 4 4
9 8 6 5 7 7 9 9 8 9 9 8 4 7 3 2 1 2 1 3 4 4 4 4 3 3 4 4 4 4 5 4 4 4 4 4 5 5 5 5 4 4 3 3
8 8 7 6 8 6 9 11 9 8 8 5 6 7 1 3 2 1 1 2 3 3 3 3 2 2 3 3 3 3 3 4 4 4 4 4 4 4 3 4 4 4 3 2
5 4 4 3 5 7 8 9 9 10 11 10 7 4 4 3 2 2 2 3 3 3 3 2 2 2 1 2 2 2 2 2 3 4 4 4 4 3 3 3 4 3 3 2
5 6 4 4 6 5 7 6 6 9 10 11 9 7 4 3 2 2 2 2 2 2 2 2 2 2 1 1 1 1 1 2 3 3 3 3 3 4 3 3 3 3 3 3
7 7 6 6 7 6 6 7 7 8 9 10 10 3 3 1 1 1 2 2 2 3 2 2 2 2 2 1 1 0 1 2 2 3 3 3 3 3 4 4 4 4 4 4
5 7 7 6 2 4 7 7 8 8 9 10 10 3 4 2 0 1 1 2 2 2 2 2 2 2 1 1 0 0 1 1 2 2 2 3 3 3 4 4 4 4 4 5
3 5 7 8 8 7 6 6 8 9 9 9 11 4 5 2 0 0 1 2 2 2 2 2 2 2 1 1 1 1 1 1 1 2 3 3 4 4 4 4 4 5 5 4
5 6 9 9 5 2 6 7 8 10 9 10 10 8 3 2 2 1 2 2 2 2 1 1 2 2 1 1 1 1 1 1 1 2 3 3 4 4 4 4 5 5 5 5
5 7 8 8 7 7 8 8 9 10 11 12 9 9 6 4 3 2 2 2 2 2 1 1 1 1 2 1 1 2 2 1 2 2 2 3 3 4 4 3 4 4 4 5
4 6 7 9 8 9 10 10 10 10 11 11 11 9 5 4 3 2 2 3 3 2 2 2 2 2 2 1 2 2 2 2 2 2 2 2 3 3 3 3 3 4 4 4
5 6 8 9 7 9 11 8 9 9 8 9 10 6 3 4 4 3 2 3 3 3 3 2 2 2 2 1 2 2 2 2 2 3 3 2 3 3 4 3 3 3 4 3
6 7 6 7 7 12 2 2 5 8 7 7 6 4 4 4 3 2 2 2 3 3 3 2 2 2 1 1 1 2 1 2 2 3 3 2 3 3 3 3 3 3 3 3
5 6 6 7 9 8 4 2 3 6 6 4 5 4 4 3 3 2 0 2 3 3 3 3 2 2 1 1 1 1 1 1 1 2 2 2 3 3 4 3 3 2 2 3
5 6 8 8 10 8 1 1 2 6 7 1 2 3 3 3 5 1 0 2 2 2 2 2 2 2 1 1 1 1 1 1 2 2 2 2 2 3 3 3 3 2 2 3
6 7 8 9 9 5 1 1 3 6 2 2 1 2 2 3 4 3 1 2 1 0 2 2 2 2 1 1 1 1 1 1 2 2 1 1 2 3 3 3 3 3 2 2
6 6 6 7 8 4 2 2 3 3 3 1 2 2 2 2 2 1 1 1 1 0 1 1 2 2 1 1 1 1 1 1 1 1 2 2 2 2 2 2 2 2 2 3
5 4 4 4 3 2 1 1 1 2 2 1 1 1 2 2 1 1 1 1 1 0 1 1 1 2 1 1 1 1 1 1 1 1 2 2 2 2 2 3 3 3 3 3
4 3 5 5 5 3 2 2 2 2 2 2 1 1 1 1 1 1 1 1 1 0 1 1 1 1 1 1 0 0 1 1 1 2 2 2 3 3 2 2 3 2 2 3
4 3 6 7 5 4 3 2 2 2 2 2 2 2 2 2 1 1 1 1 1 0 1 1 1 1 1 1 1 1 1 0 1 1 1 2 2 2 2 2 1 2 1 1
6 6 6 5 2 4 2 1 2 2 2 2 2 3 3 2 2 1 1 1 1 1 1 1 1 1 1 1 2 2 2 1 0 1 1 1 1 1 2 2 1 1 1 1
Wind_Direction
197 218 219 217 229 264 271 257 247 238 217 245 244 253 246 215 218 217 204 200 195 187 178 171 170 166 164 165 176 184 188 182 188 192 198 191 189 195 194 198 196 204 206 197
203 221 228 232 228 238 243 248 245 230 200 247 245 254 249 225 227 228 219 209 201 192 178 173 175 175 174 172 176 179 184 183 192 193 208 206 205 204 195 208 194 208 204 204
227 198 201 217 217 226 237 248 253 250 216 226 247 241 221 193 199 208 216 215 205 196 187 180 179 180 177 177 180 179 181 183 193 194 200 200 200 202 190 197 193 202 204 203
231 214 211 222 224 233 237 236 248 249 246 234 234 262 206 190 191 203 211 212 205 193 189 186 182 180 180 180 177 177 181 186 188 197 204 204 207 207 202 203 191 192 197 204
206 206 217 230 233 237 254 251 243 247 250 258 233 257 220 188 213 213 205 205 197 187 184 185 182 174 174 175 173 171 176 178 184 202 204 212 217 214 203 201 186 196 186 197
234 217 243 251 243 234 229 219 223 234 241 245 243 251 245 206 243 236 190 188 182 179 177 172 161 164 167 169 169 168 173 177 181 194 205 212 222 222 209 201 191 193 184 189
212 207 208 232 223 197 221 233 229 222 222 239 216 243 263 34 4 286 205 167 166 169 165 165 165 172 169 168 170 175 173 180 185 190 204 211 216 215 211 212 198 200 188 182
223 207 191 209 237 232 224 244 258 268 268 258 200 237 144 87 77 70 116 140 148 157 154 159 157 166 163 161 168 178 183 186 191 196 205 216 217 220 214 208 206 198 204 187
244 221 158 205 241 255 233 239 269 273 272 272 249 214 175 150 145 134 136 143 154 158 152 151 146 149 151 157 170 192 193 199 203 209 210 211 213 224 219 206 206 196 191 183
265 253 203 189 212 217 271 270 249 256 265 263 252 233 228 176 184 162 168 175 159 154 157 153 151 149 141 138 146 171 192 214 212 212 222 219 213 215 212 214 200 194 189 184
251 251 222 207 228 234 219 231 253 264 270 273 270 259 65 92 153 186 179 170 163 173 172 159 155 150 134 128 144 176 210 224 220 216 214 229 222 213 212 211 209 202 200 196
236 259 252 237 228 283 257 255 250 257 259 260 274 273 97 75 18 207 183 152 148 161 169 168 161 162 164 180 212 8 272 245 234 214 210 220 224 220 215 211 210 206 204 205
213 238 242 222 200 201 231 244 255 260 265 263 266 255 123 109 98 227 195 150 153 158 156 156 161 171 192 218 260 298 266 243 240 220 207 208 218 218 214 215 213 210 206 202
248 246 260 275 301 257 232 240 247 255 257 261 264 277 243 292 277 238 191 169 164 165 174 182 189 197 211 246 268 280 286 278 242 224 216 212 218 219 214 211 210 209 203 200
244 246 250 264 276 272 266 260 253 254 267 275 281 282 293 301 282 247 201 184 189 184 178 203 228 243 254 249 256 276 280 269 246 229 221 219 217 218 207 206 210 201 202 199
238 256 251 249 247 254 257 257 256 256 261 266 271 273 306 307 290 257 222 210 207 195 214 219 223 245 255 256 255 259 270 259 248 233 222 213 206 202 195 189 195 191 193 200
220 235 250 255 243 250 246 251 254 255 260 269 271 284 307 288 276 268 244 229 222 219 222 225 226 236 244 249 258 255 259 260 255 242 231 221 210 195 194 185 176 181 183 186
236 238 251 259 245 249 274 0 282 270 263 269 282 299 300 292 281 280 274 252 230 228 223 225 235 245 252 248 252 272 258 242 238 234 223 213 207 192 182 179 175 186 183 183
234 235 249 253 251 252 225 232 264 267 257 263 271 285 298 298 244 215 219 265 249 234 226 232 235 231 244 243 236 270 272 241 232 229 222 204 205 190 181 177 176 182 196 197
202 228 247 249 260 268 285 54 300 263 246 214 268 278 287 272 260 273 50 277 262 242 210 208 205 199 212 236 235 239 256 268 256 243 228 211 213 204 192 184 189 193 204 204
204 217 237 251 255 261 41 86 221 246 330 57 292 278 271 279 318 1 320 297 281 180 158 167 175 180 181 209 220 229 253 273 292 285 244 215 218 218 204 188 190 196 209 207
235 237 231 246 253 251 108 184 247 333 3 305 275 266 281 306 322 328 325 336 346 139 139 149 152 142 135 163 188 213 246 284 280 270 241 221 229 237 204 197 195 194 210 210
244 270 271 250 272 30 217 268 337 326 313 302 272 282 268 264 283 353 344 335 352 75 116 145 142 118 116 142 173 217 253 250 234 228 222 214 216 235 232 218 208 204 206 220
211 240 254 248 241 236 248 264 267 279 289 288 267 237 236 247 269 309 300 298 323 176 162 183 171 122 91 74 64 256 243 232 212 215 212 205 204 215 217 226 223 218 219 226
279 234 247 247 257 256 242 266 277 272 262 245 222 212 219 230 244 275 287 282 267 230 197 179 169 108 74 47 17 3 345 268 213 212 217 217 203 195 213 221 253 250 245 273
255 257 265 279 295 275 287 279 286 263 246 241 227 214 213 218 238 266 286 286 259 210 164 145 118 93 48 28 11 7 3 336 254 212 218 231 215 195 207 196 175 85 283 200